MAC332 LFMT-GMMW

Flight info

Callsign MAC332
Flight time 1h 37m
Altitude 35000
Route PPG DCT ALBER P84 GIR/N0416F290 L110 SEROX/N0441F350 N860 AMR/N0441F360 M372 ESAMI UM372 ARI
Aircraft A320/M-SDE3FGHIRWY/LB1

Departure

Time 2026-05-04 13:21
Airport Montpellier-Méditerranée Airport (LFMT)

Arrival

Time 2026-05-04 14:59
Airport Nador Al Aaroui International Airport (GMMW)
Time Latitude Longitude Altitude Speed Heading
2026-05-04 12:51 43.57975 3.95920 15 ft 0 kts 197°
2026-05-04 13:09 43.57974 3.95919 43 ft 0 kts 197°
2026-05-04 13:11 43.57992 3.95923 15 ft 4 kts 185°
2026-05-04 13:11 43.58017 3.95927 15 ft 4 kts 179°
2026-05-04 13:11 43.58042 3.95920 16 ft 4 kts 142°
2026-05-04 13:12 43.58053 3.95900 16 ft 0 kts 97°
2026-05-04 13:13 43.58049 3.95930 17 ft 6 kts 99°
2026-05-04 13:14 43.58033 3.96000 17 ft 8 kts 114°
2026-05-04 13:14 43.58011 3.96052 16 ft 4 kts 125°
2026-05-04 13:14 43.57992 3.96088 15 ft 7 kts 127°
2026-05-04 13:14 43.57968 3.96140 15 ft 5 kts 109°
2026-05-04 13:15 43.57973 3.96192 15 ft 7 kts 58°
2026-05-04 13:15 43.58021 3.96246 15 ft 10 kts 36°
2026-05-04 13:15 43.58029 3.96323 16 ft 9 kts 126°
2026-05-04 13:15 43.57996 3.96391 15 ft 10 kts 124°
2026-05-04 13:16 43.57938 3.96504 14 ft 18 kts 126°
2026-05-04 13:16 43.57861 3.96659 11 ft 20 kts 123°
2026-05-04 13:16 43.57778 3.96825 12 ft 19 kts 125°
2026-05-04 13:16 43.57702 3.96977 13 ft 15 kts 124°
2026-05-04 13:17 43.57657 3.97067 17 ft 8 kts 124°
2026-05-04 13:17 43.57631 3.97117 16 ft 7 kts 127°
2026-05-04 13:17 43.57611 3.97154 16 ft 3 kts 126°
2026-05-04 13:17 43.57587 3.97203 16 ft 13 kts 124°
2026-05-04 13:18 43.57538 3.97301 20 ft 9 kts 124°
2026-05-04 13:18 43.57490 3.97397 19 ft 16 kts 125°
2026-05-04 13:18 43.57406 3.97560 16 ft 24 kts 125°
2026-05-04 13:18 43.57310 3.97750 14 ft 24 kts 124°
2026-05-04 13:19 43.57221 3.97936 15 ft 21 kts 123°
2026-05-04 13:19 43.57181 3.98086 14 ft 12 kts 74°
2026-05-04 13:19 43.57226 3.98155 15 ft 8 kts 31°
2026-05-04 13:19 43.57268 3.98176 16 ft 5 kts
2026-05-04 13:20 43.57310 3.98155 17 ft 8 kts 307°
2026-05-04 13:20 43.57329 3.98116 16 ft 4 kts 304°
2026-05-04 13:20 43.57373 3.98025 15 ft 23 kts 304°
2026-05-04 13:20 43.57550 3.97678 17 ft 81 kts 305°
2026-05-04 13:21 43.58026 3.96734 23 ft 154 kts 308°
2026-05-04 13:21 43.58702 3.95462 666 ft 171 kts 310°
2026-05-04 13:21 43.59413 3.94028 1337 ft 188 kts 299°
2026-05-04 13:21 43.59827 3.92272 1755 ft 202 kts 270°
2026-05-04 13:22 43.59507 3.90295 1873 ft 227 kts 232°
2026-05-04 13:22 43.58306 3.88894 2410 ft 229 kts 196°
2026-05-04 13:22 43.56747 3.88440 3153 ft 232 kts 182°
2026-05-04 13:22 43.55186 3.88243 4268 ft 222 kts 181°
2026-05-04 13:23 43.53589 3.88216 4922 ft 240 kts 177°
2026-05-04 13:23 43.51887 3.88296 5623 ft 250 kts 177°
2026-05-04 13:23 43.50149 3.88379 6599 ft 242 kts 178°
2026-05-04 13:23 43.48521 3.88429 7850 ft 229 kts 182°
2026-05-04 13:24 43.46934 3.88018 8599 ft 238 kts 204°
2026-05-04 13:24 43.45591 3.86685 9588 ft 242 kts 224°
2026-05-04 13:24 43.44418 3.84999 10516 ft 244 kts 225°
2026-05-04 13:25 43.42054 3.81578 12212 ft 248 kts 224°
2026-05-04 13:25 43.40854 3.79847 13021 ft 253 kts 224°
2026-05-04 13:25 43.39629 3.78084 13796 ft 257 kts 225°
2026-05-04 13:25 43.38385 3.76293 14478 ft 260 kts 224°
2026-05-04 13:26 43.37193 3.74436 15103 ft 269 kts 228°
2026-05-04 13:26 43.35977 3.72332 15379 ft 293 kts 230°
2026-05-04 13:26 43.34694 3.70015 15605 ft 316 kts 232°
2026-05-04 13:26 43.33320 3.67511 15771 ft 340 kts 231°
2026-05-04 13:27 43.31845 3.64845 15897 ft 359 kts 231°
2026-05-04 13:27 43.30302 3.62069 16024 ft 375 kts 231°
2026-05-04 13:27 43.28686 3.59169 16151 ft 389 kts 231°
2026-05-04 13:27 43.27022 3.56194 16411 ft 398 kts 231°
2026-05-04 13:28 43.25323 3.53169 16855 ft 401 kts 231°
2026-05-04 13:28 43.23609 3.50121 17324 ft 404 kts 231°
2026-05-04 13:28 43.21889 3.47063 17805 ft 407 kts 231°
2026-05-04 13:28 43.20149 3.43974 18266 ft 410 kts 231°
2026-05-04 13:29 43.18399 3.40867 18676 ft 412 kts 231°
2026-05-04 13:29 43.16641 3.37743 19077 ft 414 kts 231°
2026-05-04 13:29 43.14875 3.34611 19511 ft 416 kts 231°
2026-05-04 13:29 43.13110 3.31483 19924 ft 417 kts 231°
2026-05-04 13:30 43.11332 3.28335 20346 ft 418 kts 231°
2026-05-04 13:30 43.09545 3.25182 20742 ft 419 kts 231°
2026-05-04 13:30 43.07749 3.22020 21130 ft 421 kts 231°
2026-05-04 13:30 43.05958 3.18871 21514 ft 422 kts 231°
2026-05-04 13:31 43.04153 3.15695 21884 ft 423 kts 232°
2026-05-04 13:31 43.02348 3.12521 22227 ft 425 kts 232°
2026-05-04 13:31 43.00527 3.09331 22597 ft 426 kts 232°
2026-05-04 13:31 42.98699 3.06133 22937 ft 427 kts 232°
2026-05-04 13:32 42.96874 3.02939 23317 ft 427 kts 231°
2026-05-04 13:32 42.95042 2.99736 23672 ft 428 kts 232°
2026-05-04 13:32 42.93210 2.96527 23963 ft 429 kts 232°
2026-05-04 13:32 42.91382 2.93325 24287 ft 428 kts 232°
2026-05-04 13:33 42.89577 2.90168 24674 ft 426 kts 231°
2026-05-04 13:33 42.87730 2.86944 25094 ft 424 kts 231°
2026-05-04 13:33 42.85941 2.83833 25505 ft 423 kts 231°
2026-05-04 13:33 42.84128 2.80685 25913 ft 421 kts 231°
2026-05-04 13:34 42.82329 2.77561 26307 ft 419 kts 231°
2026-05-04 13:34 42.80523 2.74428 26718 ft 418 kts 231°
2026-05-04 13:34 42.78735 2.71332 27165 ft 416 kts 231°
2026-05-04 13:34 42.76948 2.68245 27620 ft 414 kts 231°
2026-05-04 13:35 42.75166 2.65169 28014 ft 413 kts 231°
2026-05-04 13:35 42.71617 2.59028 28756 ft 412 kts 231°
2026-05-04 13:35 42.69846 2.55963 29187 ft 411 kts 231°
2026-05-04 13:36 42.68088 2.52923 29628 ft 409 kts 231°
2026-05-04 13:36 42.66323 2.49892 30039 ft 408 kts 231°
2026-05-04 13:36 42.64564 2.46873 30423 ft 406 kts 230°
2026-05-04 13:36 42.62819 2.43879 30862 ft 404 kts 231°
2026-05-04 13:37 42.61077 2.40892 31308 ft 402 kts 231°
2026-05-04 13:37 42.59340 2.37923 31759 ft 400 kts 231°
2026-05-04 13:37 42.57621 2.34979 32150 ft 398 kts 231°
2026-05-04 13:37 42.56483 2.33029 32375 ft 398 kts 231°
2026-05-04 13:38 42.54183 2.29094 32821 ft 396 kts 231°
2026-05-04 13:38 42.52481 2.26189 33321 ft 392 kts 231°
2026-05-04 13:38 42.50793 2.23311 33782 ft 388 kts 230°
2026-05-04 13:38 42.49121 2.20465 34116 ft 386 kts 230°
2026-05-04 13:39 42.47443 2.17614 34409 ft 386 kts 231°
2026-05-04 13:39 42.45795 2.14817 34634 ft 386 kts 231°
2026-05-04 13:39 42.44117 2.11971 34856 ft 387 kts 231°
2026-05-04 13:40 42.40735 2.06237 34928 ft 393 kts 231°
2026-05-04 13:40 42.37303 2.00428 34928 ft 395 kts 231°
2026-05-04 13:41 42.33878 1.94641 34927 ft 394 kts 231°
2026-05-04 13:41 42.30445 1.88838 34942 ft 395 kts 230°
2026-05-04 13:42 42.25294 1.80174 34927 ft 393 kts 230°
2026-05-04 13:42 42.21864 1.74418 34931 ft 394 kts 230°
2026-05-04 13:43 42.18429 1.68656 34901 ft 394 kts 230°
2026-05-04 13:43 42.14989 1.62901 34908 ft 394 kts 230°
2026-05-04 13:44 42.11540 1.57142 34915 ft 394 kts 230°
2026-05-04 13:44 42.08087 1.51399 34965 ft 395 kts 230°
2026-05-04 13:45 42.04623 1.45659 34973 ft 395 kts 230°
2026-05-04 13:45 42.01156 1.39918 34978 ft 395 kts 230°
2026-05-04 13:46 41.97704 1.34186 34968 ft 395 kts 230°
2026-05-04 13:46 41.94244 1.28455 34965 ft 395 kts 230°
2026-05-04 13:47 41.90770 1.22725 34963 ft 395 kts 230°
2026-05-04 13:47 41.87295 1.17012 34959 ft 395 kts 230°
2026-05-04 13:48 41.83819 1.11300 34989 ft 395 kts 229°
2026-05-04 13:48 41.80360 1.05621 34966 ft 395 kts 229°
2026-05-04 13:49 41.76885 0.99922 34920 ft 395 kts 230°
2026-05-04 13:49 41.73394 0.94217 34907 ft 395 kts 229°
2026-05-04 13:50 41.71408 0.91710 34914 ft 395 kts 216°
2026-05-04 13:50 41.69117 0.89675 34915 ft 395 kts 214°
2026-05-04 13:50 41.64506 0.85673 34919 ft 396 kts 214°
2026-05-04 13:51 41.59878 0.81692 34928 ft 396 kts 214°
2026-05-04 13:51 41.55248 0.77710 34908 ft 396 kts 214°
2026-05-04 13:52 41.48296 0.71735 34924 ft 396 kts 214°
2026-05-04 13:53 41.43655 0.67749 34930 ft 396 kts 214°
2026-05-04 13:53 41.39018 0.63776 34928 ft 396 kts 214°
2026-05-04 13:54 41.32051 0.57829 34909 ft 396 kts 214°
2026-05-04 13:55 41.25090 0.51895 34921 ft 396 kts 215°
2026-05-04 13:55 41.18132 0.45962 34926 ft 396 kts 214°
2026-05-04 13:56 41.13527 0.42053 34923 ft 396 kts 214°
2026-05-04 13:57 41.06562 0.36172 34937 ft 396 kts 215°
2026-05-04 13:58 40.98064 0.28993 34927 ft 396 kts 215°
2026-05-04 13:58 40.91103 0.23120 34915 ft 395 kts 215°
2026-05-04 13:59 40.86464 0.19218 34900 ft 396 kts 215°
2026-05-04 14:00 40.79487 0.13381 34900 ft 396 kts 215°
2026-05-04 14:00 40.72516 0.07539 34908 ft 396 kts 215°
2026-05-04 14:01 40.67860 0.03656 34913 ft 396 kts 214°
2026-05-04 14:02 40.60875 -0.02157 34929 ft 396 kts 215°
2026-05-04 14:02 40.56178 -0.05936 34939 ft 398 kts 209°
2026-05-04 14:03 40.50912 -0.08331 34945 ft 403 kts 201°
2026-05-04 14:03 40.45542 -0.10455 34938 ft 402 kts 201°
2026-05-04 14:04 40.37498 -0.13640 34957 ft 402 kts 201°
2026-05-04 14:04 40.32140 -0.15757 34965 ft 402 kts 201°
2026-05-04 14:05 40.24127 -0.18916 34927 ft 402 kts 201°
2026-05-04 14:06 40.18762 -0.21020 34929 ft 403 kts 201°
2026-05-04 14:06 40.13377 -0.23127 34928 ft 404 kts 201°
2026-05-04 14:07 40.08001 -0.25242 34922 ft 404 kts 201°
2026-05-04 14:07 40.02621 -0.27353 34878 ft 404 kts 202°
2026-05-04 14:08 39.97223 -0.29459 34892 ft 405 kts 201°
2026-05-04 14:08 39.91830 -0.31557 34898 ft 405 kts 201°
2026-05-04 14:09 39.83730 -0.34702 34901 ft 405 kts 201°
2026-05-04 14:10 39.75621 -0.37846 34882 ft 406 kts 202°
2026-05-04 14:10 39.70204 -0.39952 34890 ft 406 kts 201°
2026-05-04 14:11 39.64784 -0.42051 34895 ft 407 kts 201°
2026-05-04 14:11 39.56643 -0.45188 34881 ft 407 kts 201°
2026-05-04 14:12 39.51230 -0.47267 35033 ft 407 kts 201°
2026-05-04 14:12 39.46061 -0.50039 35553 ft 399 kts 212°
2026-05-04 14:13 39.43629 -0.51757 35778 ft 399 kts 212°
2026-05-04 14:13 39.41183 -0.53468 35998 ft 399 kts 212°
2026-05-04 14:13 39.38728 -0.55170 36220 ft 399 kts 212°
2026-05-04 14:13 39.36280 -0.56861 36424 ft 399 kts 212°
2026-05-04 14:14 39.33834 -0.58553 36626 ft 398 kts 212°
2026-05-04 14:14 39.28967 -0.61936 36916 ft 397 kts 212°
2026-05-04 14:14 39.26543 -0.63621 36570 ft 394 kts 212°
2026-05-04 14:15 39.21706 -0.66978 35086 ft 396 kts 212°
2026-05-04 14:15 39.16846 -0.70343 33598 ft 398 kts 212°
2026-05-04 14:16 39.11942 -0.73728 31708 ft 403 kts 212°
2026-05-04 14:16 39.09465 -0.75434 31150 ft 404 kts 212°
2026-05-04 14:17 39.04481 -0.78870 30903 ft 409 kts 212°
2026-05-04 14:17 39.01967 -0.80600 30922 ft 410 kts 212°
2026-05-04 14:18 38.94445 -0.85769 30925 ft 411 kts 212°
2026-05-04 14:19 38.84379 -0.92659 30930 ft 408 kts 212°
2026-05-04 14:19 38.79374 -0.96082 30935 ft 408 kts 212°
2026-05-04 14:20 38.74338 -0.99516 30938 ft 408 kts 212°
2026-05-04 14:20 38.69359 -1.02907 30936 ft 407 kts 212°
2026-05-04 14:21 38.64366 -1.06300 30368 ft 406 kts 212°
2026-05-04 14:21 38.61849 -1.08008 29415 ft 411 kts 212°
2026-05-04 14:21 38.59314 -1.09731 29079 ft 416 kts 212°
2026-05-04 14:21 38.56746 -1.11478 28899 ft 418 kts 212°
2026-05-04 14:22 38.51582 -1.14977 28983 ft 420 kts 212°
2026-05-04 14:22 38.46404 -1.18478 28942 ft 422 kts 212°
2026-05-04 14:23 38.38618 -1.23723 28939 ft 422 kts 212°
2026-05-04 14:24 38.33432 -1.27216 28932 ft 422 kts 212°
2026-05-04 14:24 38.28240 -1.30718 28931 ft 422 kts 212°
2026-05-04 14:25 38.23050 -1.34201 28920 ft 422 kts 212°
2026-05-04 14:25 38.15256 -1.39411 28916 ft 422 kts 213°
2026-05-04 14:26 38.10073 -1.42890 28922 ft 421 kts 213°
2026-05-04 14:26 38.04884 -1.46353 28908 ft 421 kts 212°
2026-05-04 14:27 37.99697 -1.49799 28914 ft 421 kts 212°
2026-05-04 14:27 37.94536 -1.53227 28926 ft 421 kts 212°
2026-05-04 14:28 37.89359 -1.56668 28904 ft 419 kts 213°
2026-05-04 14:28 37.84172 -1.60060 28903 ft 419 kts 212°
2026-05-04 14:29 37.73774 -1.66789 28904 ft 420 kts 212°
2026-05-04 14:30 37.68581 -1.70152 28878 ft 419 kts 213°
2026-05-04 14:31 37.60798 -1.75198 28904 ft 419 kts 213°
2026-05-04 14:32 37.50431 -1.81890 28893 ft 419 kts 213°
2026-05-04 14:32 37.45235 -1.85234 28865 ft 419 kts 213°
2026-05-04 14:33 37.40034 -1.88573 28897 ft 420 kts 213°
2026-05-04 14:33 37.34827 -1.91912 28907 ft 421 kts 213°
2026-05-04 14:34 37.29614 -1.95252 28906 ft 421 kts 213°
2026-05-04 14:34 37.24386 -1.98591 28918 ft 421 kts 213°
2026-05-04 14:35 37.19238 -2.01976 28918 ft 421 kts 214°
2026-05-04 14:35 37.14063 -2.05477 28917 ft 422 kts 214°
2026-05-04 14:36 37.08896 -2.08959 28931 ft 422 kts 214°
2026-05-04 14:36 37.03719 -2.12415 28938 ft 422 kts 214°
2026-05-04 14:37 36.98529 -2.15860 28954 ft 422 kts 214°
2026-05-04 14:37 36.93337 -2.19301 28965 ft 423 kts 213°
2026-05-04 14:38 36.88131 -2.22744 28968 ft 424 kts 213°
2026-05-04 14:38 36.82875 -2.26093 28976 ft 428 kts 208°
2026-05-04 14:39 36.77214 -2.28571 28975 ft 431 kts 206°
2026-05-04 14:39 36.71558 -2.31013 28923 ft 430 kts 206°
2026-05-04 14:40 36.63012 -2.34705 28966 ft 435 kts 205°
2026-05-04 14:40 36.57285 -2.37163 28968 ft 435 kts 205°
2026-05-04 14:41 36.51604 -2.39596 28967 ft 435 kts 205°
2026-05-04 14:42 36.40142 -2.44515 28975 ft 436 kts 205°
2026-05-04 14:42 36.37270 -2.45747 28666 ft 437 kts 205°
2026-05-04 14:42 36.34398 -2.46976 28256 ft 437 kts 205°
2026-05-04 14:43 36.31515 -2.48209 27876 ft 438 kts 205°
2026-05-04 14:43 36.28628 -2.49437 27491 ft 440 kts 205°
2026-05-04 14:43 36.25727 -2.50668 27101 ft 441 kts 205°
2026-05-04 14:43 36.23805 -2.51484 26852 ft 442 kts 205°
2026-05-04 14:44 36.19905 -2.53144 26325 ft 444 kts 204°
2026-05-04 14:44 36.17971 -2.53968 26079 ft 445 kts 204°
2026-05-04 14:44 36.15036 -2.55218 25715 ft 446 kts 204°
2026-05-04 14:44 36.12097 -2.56470 25346 ft 447 kts 204°
2026-05-04 14:45 36.09148 -2.57725 24992 ft 449 kts 204°
2026-05-04 14:45 36.06193 -2.58980 24645 ft 450 kts 204°
2026-05-04 14:45 36.03233 -2.60233 24305 ft 449 kts 204°
2026-05-04 14:45 36.00281 -2.61481 23960 ft 448 kts 204°
2026-05-04 14:46 35.97342 -2.62724 23618 ft 446 kts 204°
2026-05-04 14:46 35.94415 -2.63960 23222 ft 443 kts 204°
2026-05-04 14:46 35.91657 -2.65124 22844 ft 441 kts 204°
2026-05-04 14:46 35.88759 -2.66346 22450 ft 439 kts 204°
2026-05-04 14:47 35.85876 -2.67560 22069 ft 437 kts 204°
2026-05-04 14:47 35.83004 -2.68767 21540 ft 435 kts 203°
2026-05-04 14:47 35.80181 -2.69940 20998 ft 432 kts 203°
2026-05-04 14:47 35.77334 -2.71105 20451 ft 429 kts 203°
2026-05-04 14:48 35.74508 -2.72252 19909 ft 426 kts 202°
2026-05-04 14:48 35.71703 -2.73389 19385 ft 423 kts 202°
2026-05-04 14:48 35.68917 -2.74519 18905 ft 421 kts 202°
2026-05-04 14:48 35.66137 -2.75648 18442 ft 419 kts 202°
2026-05-04 14:49 35.63381 -2.76766 17937 ft 417 kts 202°
2026-05-04 14:49 35.60636 -2.77884 17418 ft 413 kts 202°
2026-05-04 14:49 35.57915 -2.78995 16904 ft 410 kts 202°
2026-05-04 14:49 35.55227 -2.80091 16396 ft 406 kts 202°
2026-05-04 14:50 35.52550 -2.81181 15898 ft 403 kts 202°
2026-05-04 14:50 35.49893 -2.82262 15417 ft 400 kts 202°
2026-05-04 14:50 35.47251 -2.83330 14947 ft 398 kts 201°
2026-05-04 14:50 35.44530 -2.83953 14457 ft 400 kts 190°
2026-05-04 14:51 35.41770 -2.84263 13991 ft 394 kts 190°
2026-05-04 14:51 35.39074 -2.84548 13488 ft 384 kts 190°
2026-05-04 14:51 35.36442 -2.84820 12968 ft 375 kts 189°
2026-05-04 14:51 35.33871 -2.85088 12463 ft 367 kts 189°
2026-05-04 14:52 35.31350 -2.85352 11962 ft 360 kts 189°
2026-05-04 14:52 35.28907 -2.85613 11474 ft 353 kts 189°
2026-05-04 14:52 35.26476 -2.85879 10987 ft 347 kts 189°
2026-05-04 14:52 35.24090 -2.86139 10508 ft 341 kts 189°
2026-05-04 14:53 35.21742 -2.86393 10036 ft 336 kts 188°
2026-05-04 14:53 35.19427 -2.86642 9507 ft 331 kts 188°
2026-05-04 14:53 35.17146 -2.86885 8993 ft 327 kts 188°
2026-05-04 14:53 35.14939 -2.87120 8476 ft 324 kts 188°
2026-05-04 14:54 35.12716 -2.87356 7977 ft 316 kts 188°
2026-05-04 14:54 35.10579 -2.87565 7498 ft 300 kts 186°
2026-05-04 14:54 35.08540 -2.87276 7015 ft 292 kts 171°
2026-05-04 14:54 35.06610 -2.86665 6541 ft 281 kts 169°
2026-05-04 14:55 35.04775 -2.86058 6055 ft 263 kts 169°
2026-05-04 14:55 35.03090 -2.85505 5599 ft 238 kts 173°
2026-05-04 14:55 35.01585 -2.85650 5173 ft 204 kts 212°
2026-05-04 14:55 35.00743 -2.86838 4593 ft 185 kts 255°
2026-05-04 14:56 35.00772 -2.88409 3631 ft 192 kts 283°
2026-05-04 14:56 35.00953 -2.89998 2988 ft 187 kts 271°
2026-05-04 14:56 35.00842 -2.91569 2273 ft 186 kts 263°
2026-05-04 14:56 35.00605 -2.93045 1888 ft 169 kts 264°
2026-05-04 14:57 35.00441 -2.94421 1672 ft 158 kts 266°
2026-05-04 14:57 35.00256 -2.95687 1480 ft 146 kts 268°
2026-05-04 14:57 35.00036 -2.96892 1337 ft 147 kts 254°
2026-05-04 14:57 34.99723 -2.98059 1170 ft 147 kts 263°
2026-05-04 14:58 34.99510 -2.99263 951 ft 143 kts 265°
2026-05-04 14:58 34.99324 -3.00470 783 ft 148 kts 263°
2026-05-04 14:58 34.99116 -3.01681 614 ft 138 kts 262°
2026-05-04 14:58 34.98961 -3.02591 600 ft 69 kts 257°
2026-05-04 14:59 34.98945 -3.02889 601 ft 19 kts 325°
2026-05-04 14:59 34.99050 -3.02926 602 ft 10 kts 349°
2026-05-04 14:59 34.99141 -3.02992 601 ft 8 kts 270°
2026-05-04 15:00 34.99135 -3.03050 602 ft 5 kts 256°
2026-05-04 15:00 34.99129 -3.03086 602 ft 4 kts 259°
2026-05-04 15:00 34.99132 -3.03131 603 ft 5 kts 314°
2026-05-04 15:01 34.99191 -3.03153 602 ft 3 kts 348°
2026-05-04 15:01 34.99197 -3.03140 602 ft 2 kts 92°
2026-05-04 15:01 34.99181 -3.03106 601 ft 4 kts 122°
2026-05-04 15:01 34.99177 -3.03099 601 ft 0 kts 122°